Location: Newark
(13.6797°N, 8.5297°E)
Time: 11:23:04
(UTC+00:00)

SR - Pass Details

Date: 01 February 2020
Orbit: 575 x 880 km, 66.7° (Epoch: 25 February)

Event Time Altitude Azimuth Distance (km) Brightness Sun altitude
Rises 18:04:50 0° 183° (S) 3,248 ? -9.9°
Reaches altitude 10° 18:07:19 10° 175° (S) 2,366 ? -10.5°
Maximum altitude 18:12:22 38° 108° (ESE) 1,253 ? -11.7°
Enters shadow 18:17:18 12° 43° (NE) 2,364 ? -12.8°
Drops below altitude 10° 18:17:42 10° 41° (NE) 2,502 - -12.9°
Sets 18:20:23 0° 34° (NE) 3,457 - -13.6°
